[[{"header":{"parameterUnit":"m.s-1","parameterCategory":2,"la1":30.2992,"la2":30.254,"lo1":-89.0895,"lo2":-89.0443,"dy":0.0025,"dx":0.0025,"nx":19,"ny":19,"refTime":"2026-04-29T21:00:00:Z","depth":"0","parameterNumber":2,"parameterNumberName":"U-component_of_CURRENTS"},"data":[0,0,0,0.2304,0.2307,0.2457,0.2457,0.2672,0.2674,0,0,0,0,0,0,0,0,0,0,0,0.2244,0.2245,0.2304,0.2307,0.2457,0.2457,0.2672,0.2674,0,0,0,0,0,0,0,0,0,0,0,0.2244,0.2244,0.2245,0.2307,0.2456,0.2458,0.2672,0.2556,0,0,0,0,0,0,0,0,0,0,0.2409,0.235,0.2244,0.2245,0.2308,0.2456,0.2458,0.255,0.2563,0.2607,0,0.2618,0,0.2651,0.2688,0.2689,0,0,0,0.232,0.2339,0.2374,0.2245,0.2309,0.2456,0.2393,0.2557,0.2572,0.2624,0.2621,0.2629,0.2654,0.2689,0.269,0.2876,0.2877,0,0,0.2312,0.2284,0.2364,0.2383,0.2334,0.2388,0.2397,0.2566,0.2579,0.2622,0.2635,0.2658,0.2691,0.2692,0.2876,0.2876,0,0,0,0.2279,0.2278,0.2309,0.2374,0.2399,0.2392,0.2403,0.2572,0.258,0.2637,0.266,0.2692,0.2694,0.2875,0.2876,0.284,0,0,0,0.2275,0.2258,0.2304,0.2291,0.2395,0.2486,0.2404,0.2568,0.2588,0.2659,0.2692,0.2696,0.2875,0.2876,0.284,0.2817,0,0,0,0.224,0.2255,0.2266,0.2289,0.2349,0.2483,0.2503,0.2573,0.2602,0.2689,0.2697,0.2874,0.2875,0.2839,0.2817,0.2802,0,0,0,0.2216,0.2229,0.2265,0.2303,0.2347,0.2453,0.2502,0.2605,0.2679,0.2693,0.2875,0.2876,0.2839,0.2818,0.2802,0.2669,0.2656,0,0,0.2218,0.2229,0.2255,0.2291,0.2378,0.2434,0.2538,0.2655,0.2711,0.2822,0.2827,0.284,0.2817,0.2802,0.2738,0.2722,0,0,0,0.2247,0.2255,0.2295,0.2352,0.2439,0.2518,0.2627,0.2685,0.2792,0.2758,0.2874,0.2862,0.2853,0.2775,0.2763,0.2677,0.2881,0.2881,0.2881,0.2202,0.2257,0.2299,0.2374,0.2452,0.259,0.266,0.2755,0.2813,0.2858,0.2858,0.2857,0.2776,0.2765,0.268,0.2892,0.2892,0.2892,0.2892,0.2184,0.22,0.2277,0.2326,0.243,0.2519,0.269,0.2748,0.2842,0.2879,0.2871,0.2773,0.2749,0.2663,0.289,0.2891,0.2891,0.2891,0.2891,0.214,0.2149,0.2176,0.2242,0.2326,0.2469,0.2553,0.2688,0.2795,0.2809,0.2725,0.2724,0.2624,0.2801,0.2801,0.2801,0.2801,0.2801,0.2801,0.2073,0.2101,0.2097,0.2164,0.2196,0.2294,0.2474,0.254,0.2621,0.2678,0.2677,0.261,0.283,0.2805,0.2798,0.2799,0.2799,0.2799,0.2799,0.2021,0.2025,0.2012,0.2021,0.2077,0.2091,0.2264,0.2343,0.2423,0.2427,0.2417,0.261,0.2606,0.2614,0.2586,0.2523,0.2523,0.2523,0.2523,0.1972,0.1979,0.1933,0.1916,0.193,0.1998,0.1971,0.207,0.2179,0.219,0.2258,0.2234,0.2249,0.2224,0.2242,0.2207,0.2049,0.2049,0.2048,0.1937,0.1927,0.1869,0.1847,0.1851,0.1863,0.1797,0.179,0.1923,0.2027,0.2166,0.2186,0.2155,0.2185,0.2155,0.2186,0.2133,0,0]},{"header":{"parameterUnit":"m.s-1","parameterCategory":2,"la1":30.2992,"la2":30.254,"lo1":-89.0895,"lo2":-89.0443,"dy":0.0025,"dx":0.0025,"nx":19,"ny":19,"refTime":"2026-04-29T21:00:00:Z","depth":"0","parameterNumber":3,"parameterNumberName":"V-component_of_CURRENTS"},"data":[0,0,0,0.0412,0.0413,0.0466,0.0467,0.0542,0.0542,0,0,0,0,0,0,0,0,0,0,0,0.0399,0.04,0.0412,0.0413,0.0466,0.0467,0.0541,0.0542,0,0,0,0,0,0,0,0,0,0,0,0.0399,0.04,0.04,0.0413,0.0466,0.0467,0.0541,0.0502,0,0,0,0,0,0,0,0,0,0,0.0451,0.0438,0.04,0.04,0.0414,0.0466,0.0467,0.0501,0.0505,0.0516,0,0.0521,0,0.0526,0.0546,0.0546,0,0,0,0.0425,0.0435,0.0441,0.04,0.0414,0.0466,0.0446,0.0503,0.0508,0.0521,0.0522,0.0524,0.0527,0.0547,0.0547,0.066,0.0661,0,0,0.0422,0.0418,0.0438,0.0444,0.0424,0.0444,0.0447,0.0506,0.0514,0.0522,0.0526,0.0528,0.0547,0.0547,0.0659,0.066,0,0,0,0.0406,0.0416,0.0422,0.0441,0.0446,0.0445,0.0449,0.0512,0.0511,0.0527,0.0529,0.0547,0.0548,0.0658,0.0659,0.0742,0,0,0,0.0405,0.0406,0.0421,0.042,0.0445,0.0479,0.0453,0.0508,0.0514,0.0529,0.0547,0.0549,0.0657,0.0659,0.0738,0.0786,0,0,0,0.0398,0.0405,0.0408,0.042,0.0436,0.0478,0.0482,0.0509,0.0515,0.0546,0.0549,0.0657,0.0659,0.0734,0.0779,0.0817,0,0,0,0.0396,0.0427,0.0408,0.0455,0.0435,0.0509,0.0482,0.054,0.0573,0.0548,0.0658,0.0659,0.0733,0.0775,0.0813,0.0845,0.0865,0,0,0.0438,0.0432,0.0464,0.0449,0.053,0.0502,0.06,0.0623,0.0604,0.0638,0.0641,0.0739,0.0779,0.0816,0.0952,0.0969,0,0,0,0.0481,0.0503,0.0527,0.0566,0.06,0.0656,0.0666,0.0676,0.0719,0.0628,0.0754,0.0777,0.0797,0.0809,0.0823,0.0808,0.0668,0.0668,0.0668,0.0533,0.056,0.0629,0.0671,0.0717,0.0768,0.0815,0.083,0.0793,0.0826,0.0855,0.0957,0.0972,0.0982,0.0967,0.086,0.0861,0.0861,0.0861,0.0613,0.0658,0.0703,0.0776,0.0828,0.09,0.0963,0.0956,0.1008,0.0954,0.0969,0.0909,0.1003,0.0981,0.0867,0.0866,0.0865,0.0864,0.0864,0.065,0.0676,0.0718,0.0821,0.0922,0.0987,0.1104,0.1119,0.1093,0.1124,0.1105,0.1103,0.1072,0.1118,0.1119,0.1119,0.1119,0.112,0.112,0.0661,0.0708,0.0777,0.0877,0.0954,0.1077,0.1188,0.1237,0.125,0.1213,0.1212,0.1121,0.1035,0.1011,0.1126,0.1125,0.1124,0.1124,0.1123,0.0707,0.0719,0.0822,0.0896,0.1078,0.1229,0.1311,0.1403,0.141,0.1413,0.1292,0.125,0.1224,0.1211,0.1192,0.1347,0.1347,0.1347,0.1347,0.0727,0.0743,0.0877,0.1001,0.1167,0.1308,0.1486,0.1546,0.148,0.1428,0.1376,0.1324,0.1315,0.129,0.1276,0.1256,0.1424,0.1424,0.1424,0.0761,0.0798,0.0895,0.1019,0.1211,0.1401,0.1576,0.1675,0.1546,0.1423,0.1355,0.1352,0.1266,0.1254,0.12,0.1182,0.1143,0,0]}],[{"header":{"parameterUnit":"m.s-1","parameterCategory":2,"la1":30.2992,"la2":30.254,"lo1":-89.0895,"lo2":-89.0443,"dy":0.0025,"dx":0.0025,"nx":19,"ny":19,"refTime":"2026-04-29T21:00:00:Z","depth":"2","parameterNumber":2,"parameterNumberName":"U-component_of_CURRENTS"},"data":[0,0,0,0.2146,0.2148,0.227,0.227,0.2457,0.2459,0,0,0,0,0,0,0,0,0,0,0,0.2096,0.2096,0.2146,0.2148,0.227,0.227,0.2457,0.2459,0,0,0,0,0,0,0,0,0,0,0,0.2095,0.2096,0.2097,0.2149,0.2269,0.227,0.2457,0.2359,0,0,0,0,0,0,0,0,0,0,0.2238,0.219,0.2096,0.2097,0.2149,0.2269,0.227,0.2354,0.2365,0.2409,0,0.2419,0,0.2446,0.2472,0.2472,0,0,0,0.2155,0.2181,0.2208,0.2097,0.215,0.2269,0.2217,0.236,0.2372,0.2424,0.2422,0.2429,0.2449,0.2473,0.2474,0.2648,0.2648,0,0,0.2149,0.2129,0.2199,0.2215,0.2172,0.2213,0.2221,0.2367,0.238,0.2422,0.2433,0.2452,0.2474,0.2475,0.2647,0.2648,0,0,0,0.2125,0.2124,0.2147,0.2208,0.2229,0.2216,0.2225,0.2374,0.2379,0.2435,0.2454,0.2475,0.2477,0.2647,0.2647,0.2651,0,0,0,0.2121,0.211,0.2144,0.2135,0.2225,0.2301,0.2228,0.2369,0.2387,0.2453,0.2475,0.2479,0.2646,0.2647,0.265,0.261,0,0,0,0.2092,0.2108,0.2116,0.2134,0.2183,0.2299,0.2313,0.2373,0.2398,0.2472,0.248,0.2646,0.2647,0.2649,0.261,0.259,0,0,0,0.2075,0.2085,0.2116,0.2146,0.2182,0.2265,0.2313,0.2392,0.2453,0.2476,0.2646,0.2647,0.2648,0.2609,0.2591,0.2449,0.2437,0,0,0.2076,0.2085,0.2105,0.2135,0.2208,0.2249,0.2344,0.2442,0.2487,0.26,0.2605,0.265,0.261,0.259,0.2517,0.2502,0,0,0,0.2098,0.2103,0.2135,0.2185,0.2255,0.2321,0.2418,0.2472,0.2581,0.2529,0.2674,0.2647,0.2635,0.2551,0.254,0.2653,0.2653,0.2653,0.2653,0.2064,0.2109,0.2142,0.2205,0.2266,0.2389,0.2451,0.2541,0.2606,0.2655,0.2669,0.2678,0.2592,0.2581,0.2714,0.2714,0.2714,0.2714,0.2714,0.2046,0.2056,0.2121,0.216,0.2252,0.2336,0.249,0.2556,0.2661,0.27,0.269,0.2583,0.2569,0.2714,0.2714,0.2714,0.2714,0.2714,0.2714,0.2008,0.2014,0.2038,0.2094,0.2171,0.2299,0.2381,0.2519,0.2622,0.2645,0.2548,0.2546,0.2639,0.2649,0.2649,0.2649,0.2649,0.2648,0.2648,0.1952,0.1976,0.1973,0.203,0.2062,0.2152,0.2323,0.2383,0.2452,0.2509,0.2508,0.2655,0.2657,0.2635,0.2645,0.2645,0.2646,0.2646,0.2646,0.1903,0.1911,0.1899,0.1908,0.196,0.1969,0.2129,0.2186,0.2258,0.2246,0.2431,0.2438,0.2408,0.2416,0.2388,0.2334,0.2334,0.2334,0.2334,0.1861,0.1867,0.1826,0.181,0.1822,0.1879,0.1834,0.1885,0.2029,0.208,0.2092,0.2084,0.2101,0.2056,0.2072,0.2038,0.1892,0.1891,0.189,0.1827,0.1818,0.1766,0.1746,0.1746,0.1746,0.1653,0.1556,0.1652,0.1875,0.204,0.2299,0.2319,0.2335,0.2292,0.2307,0.2263,0,0]},{"header":{"parameterUnit":"m.s-1","parameterCategory":2,"la1":30.2992,"la2":30.254,"lo1":-89.0895,"lo2":-89.0443,"dy":0.0025,"dx":0.0025,"nx":19,"ny":19,"refTime":"2026-04-29T21:00:00:Z","depth":"2","parameterNumber":3,"parameterNumberName":"V-component_of_CURRENTS"},"data":[0,0,0,0.028,0.0281,0.0319,0.0319,0.0365,0.0365,0,0,0,0,0,0,0,0,0,0,0,0.0272,0.0273,0.028,0.0281,0.0319,0.0319,0.0365,0.0365,0,0,0,0,0,0,0,0,0,0,0,0.0272,0.0273,0.0273,0.0281,0.0318,0.0319,0.0365,0.0339,0,0,0,0,0,0,0,0,0,0,0.0303,0.0298,0.0273,0.0273,0.0281,0.0318,0.0319,0.0337,0.034,0.0345,0,0.035,0,0.0353,0.0367,0.0368,0,0,0,0.0289,0.0296,0.0299,0.0273,0.0281,0.0318,0.0304,0.0339,0.0342,0.0348,0.0351,0.0353,0.0354,0.0368,0.0368,0.0446,0.0447,0,0,0.0286,0.0287,0.0297,0.0301,0.0291,0.0302,0.0305,0.0341,0.0348,0.0351,0.0354,0.0355,0.0368,0.0368,0.0446,0.0446,0,0,0,0.0275,0.0285,0.0288,0.0299,0.0303,0.0303,0.0306,0.0347,0.0346,0.0354,0.0355,0.0368,0.0369,0.0445,0.0446,0.0548,0,0,0,0.0275,0.0278,0.0287,0.0289,0.0302,0.0327,0.0311,0.0344,0.0348,0.0355,0.0368,0.0369,0.0444,0.0445,0.0544,0.0581,0,0,0,0.0271,0.0278,0.028,0.0288,0.03,0.0326,0.0328,0.0345,0.0348,0.0368,0.0369,0.0444,0.0445,0.054,0.0574,0.0602,0,0,0,0.0272,0.0299,0.0281,0.032,0.0299,0.0352,0.0328,0.0367,0.0389,0.0368,0.0444,0.0446,0.0539,0.0571,0.0599,0.0621,0.0639,0,0,0.031,0.0304,0.033,0.0314,0.0383,0.0348,0.043,0.044,0.0411,0.0432,0.0434,0.0545,0.0574,0.0601,0.0702,0.0718,0,0,0,0.0345,0.0366,0.0384,0.0417,0.0437,0.0481,0.0481,0.0486,0.0517,0.0427,0.0545,0.056,0.0574,0.058,0.0593,0.0452,0.0452,0.0452,0.0452,0.0398,0.0418,0.0478,0.0511,0.0542,0.0578,0.0614,0.0618,0.0585,0.0612,0.0644,0.0735,0.0744,0.0754,0.0647,0.0648,0.0648,0.0648,0.0649,0.0473,0.0512,0.0546,0.0609,0.0648,0.0709,0.0749,0.0745,0.0787,0.0738,0.0747,0.0689,0.0774,0.0657,0.0655,0.0654,0.0653,0.0653,0.0652,0.051,0.0533,0.0571,0.066,0.0749,0.0797,0.0897,0.0906,0.0872,0.0901,0.0869,0.0867,0.0782,0.0899,0.0899,0.09,0.09,0.09,0.09,0.0526,0.0568,0.0634,0.0721,0.0792,0.0899,0.0987,0.1021,0.1014,0.0975,0.0975,0.0818,0.081,0.0795,0.0905,0.0904,0.0904,0.0903,0.0903,0.0571,0.0584,0.0681,0.0751,0.0916,0.1048,0.111,0.1168,0.1161,0.1149,0.1006,0.1002,0.0962,0.0951,0.0938,0.1079,0.1079,0.1079,0.1079,0.0591,0.0607,0.0734,0.085,0.0998,0.1121,0.126,0.1267,0.1191,0.1109,0.1107,0.1065,0.1058,0.1019,0.1006,0.0992,0.1147,0.1147,0.1147,0.0624,0.0659,0.0751,0.0868,0.104,0.1203,0.1331,0.1319,0.1164,0.1147,0.1092,0.1088,0.102,0.1012,0.094,0.0924,0.0897,0,0]}],[{"header":{"parameterUnit":"m.s-1","parameterCategory":2,"la1":30.2992,"la2":30.254,"lo1":-89.0895,"lo2":-89.0443,"dy":0.0025,"dx":0.0025,"nx":19,"ny":19,"refTime":"2026-04-29T21:00:00:Z","depth":"4","parameterNumber":2,"parameterNumberName":"U-component_of_CURRENTS"},"data":[0,0,0,0.1447,0.1449,0.1494,0.1494,0.1513,0.1513,0,0,0,0,0,0,0,0,0,0,0,0.1443,0.1444,0.1447,0.1449,0.1494,0.1494,0.1513,0.1513,0,0,0,0,0,0,0,0,0,0,0,0.1443,0.1444,0.1445,0.1449,0.1494,0.1494,0.1513,0.1486,0,0,0,0,0,0,0,0,0,0,0.1445,0.145,0.1444,0.1445,0.1449,0.1494,0.1494,0.1485,0.1487,0.1484,0,0.1512,0,0.1513,0.1514,0.1514,0,0,0,0.1438,0.1448,0.1462,0.1445,0.145,0.1494,0.1471,0.1486,0.1489,0.1488,0.1512,0.1513,0.1513,0.1514,0.1515,0.1583,0.1583,0,0,0.1435,0.1443,0.1461,0.1465,0.1488,0.1469,0.1472,0.1489,0.1501,0.1512,0.1513,0.1513,0.1515,0.1515,0.1582,0.1583,0,0,0,0.1436,0.1442,0.1456,0.1464,0.1476,0.1471,0.1474,0.15,0.1507,0.1514,0.1514,0.1515,0.1515,0.1581,0.1582,0.1602,0,0,0,0.1434,0.1442,0.1455,0.1459,0.1476,0.1493,0.1485,0.1506,0.1507,0.1514,0.1515,0.1515,0.1581,0.1582,0.16,0.161,0,0,0,0.1436,0.1442,0.1456,0.1459,0.1483,0.1493,0.15,0.1506,0.1507,0.1514,0.1515,0.158,0.1582,0.1599,0.1607,0.1646,0,0,0,0.1428,0.1445,0.1457,0.1474,0.1483,0.149,0.15,0.1517,0.1526,0.1515,0.1581,0.1582,0.1598,0.1605,0.1644,0.1432,0,0,0,0.1434,0.1446,0.1451,0.1463,0.1455,0.1482,0.1505,0.1533,0.1547,0.1569,0.1571,0.1601,0.1607,0.1646,0.1517,0,0,0,0,0.1441,0.1452,0.1449,0.1459,0.1464,0.1489,0.1523,0.1539,0.1587,0.1562,0.1624,0.1628,0.1652,0.1523,0.1589,0.1589,0.1589,0.1589,0.1589,0.144,0.1442,0.1444,0.1455,0.147,0.1509,0.1543,0.1586,0.1596,0.1633,0.1661,0.1728,0.1594,0.1681,0.1681,0.1681,0.1681,0.1681,0.1681,0.1427,0.1418,0.1448,0.146,0.1489,0.1532,0.1583,0.1619,0.1697,0.1684,0.1707,0.1574,0.1684,0.1683,0.1683,0.1683,0.1683,0.1682,0.1682,0.1395,0.139,0.143,0.1459,0.1508,0.1564,0.1603,0.1673,0.1723,0.1764,0.1654,0.1755,0.1734,0.1795,0.1795,0.1796,0.1796,0.1796,0.1796,0.1337,0.1368,0.1396,0.1452,0.1486,0.1544,0.1625,0.1645,0.172,0.1664,0.1792,0.1767,0.1763,0.1742,0.18,0.1799,0.1799,0.1798,0.1798,0.1271,0.131,0.1331,0.137,0.1432,0.1452,0.1558,0.1545,0.1574,0.1554,0.1606,0.1615,0.1591,0.1592,0.1563,0.157,0.1568,0.1565,0,0.1225,0.1244,0.1262,0.1282,0.1297,0.1374,0.1337,0.1373,0.144,0.1421,0.1592,0.1654,0.1657,0.1632,0.1629,0.1594,0,0,0,0.1184,0.1195,0.118,0.121,0.1216,0.1232,0.1313,0.1278,0.1456,0.1364,0.1502,0.1518,0.1625,0.181,0.1795,0.1791,0.1755,0,0]},{"header":{"parameterUnit":"m.s-1","parameterCategory":2,"la1":30.2992,"la2":30.254,"lo1":-89.0895,"lo2":-89.0443,"dy":0.0025,"dx":0.0025,"nx":19,"ny":19,"refTime":"2026-04-29T21:00:00:Z","depth":"4","parameterNumber":3,"parameterNumberName":"V-component_of_CURRENTS"},"data":[0,0,0,0.0166,0.0166,0.0192,0.0192,0.0194,0.0194,0,0,0,0,0,0,0,0,0,0,0,0.0165,0.0165,0.0166,0.0166,0.0192,0.0192,0.0194,0.0194,0,0,0,0,0,0,0,0,0,0,0,0.0165,0.0165,0.0165,0.0166,0.0192,0.0192,0.0194,0.0184,0,0,0,0,0,0,0,0,0,0,0.0163,0.0167,0.0165,0.0165,0.0166,0.0192,0.0192,0.0184,0.0184,0.0172,0,0.0179,0,0.0179,0.0193,0.0192,0,0,0,0.0172,0.0167,0.0168,0.0165,0.0167,0.0192,0.0182,0.0184,0.0185,0.0172,0.0179,0.0179,0.0179,0.0192,0.0192,0.0209,0.0209,0,0,0.0171,0.0173,0.0168,0.0169,0.0177,0.0181,0.0183,0.0185,0.019,0.0179,0.0179,0.0179,0.0192,0.0192,0.0208,0.0209,0,0,0,0.0163,0.0172,0.0174,0.0169,0.0172,0.0182,0.0183,0.019,0.0189,0.0179,0.0179,0.0192,0.0192,0.0208,0.0209,0.026,0,0,0,0.0162,0.0167,0.0174,0.0176,0.0172,0.0186,0.0188,0.019,0.019,0.0179,0.0192,0.0192,0.0208,0.0208,0.0258,0.0298,0,0,0,0.0163,0.0167,0.017,0.0176,0.0183,0.0186,0.0186,0.019,0.0189,0.0192,0.0192,0.0208,0.0208,0.0256,0.0294,0.0321,0,0,0,0.0164,0.0183,0.017,0.0196,0.0182,0.0212,0.0186,0.0207,0.0215,0.0192,0.0208,0.0209,0.0256,0.0292,0.0319,0.0319,0,0,0,0.019,0.0187,0.0203,0.0191,0.0227,0.0209,0.0249,0.0244,0.0219,0.0205,0.0206,0.0259,0.0294,0.0321,0.0362,0,0,0,0,0.0212,0.0227,0.0236,0.0253,0.026,0.0282,0.0273,0.0261,0.0258,0.0225,0.0259,0.028,0.0295,0.0288,0.0212,0.0212,0.0212,0.0212,0.0212,0.0251,0.0259,0.0297,0.0311,0.0326,0.0334,0.0345,0.0328,0.0295,0.0297,0.0322,0.038,0.0374,0.0311,0.0311,0.0312,0.0312,0.0312,0.0312,0.0304,0.0327,0.0345,0.0388,0.04,0.0432,0.0418,0.0401,0.0403,0.0362,0.0373,0.0343,0.0317,0.0316,0.0315,0.0315,0.0314,0.0314,0.0314,0.0329,0.0342,0.0376,0.0436,0.049,0.0504,0.0543,0.0519,0.0468,0.0482,0.0468,0.042,0.0416,0.0487,0.0487,0.0488,0.0488,0.0488,0.0488,0.0335,0.0368,0.0425,0.0491,0.0544,0.0606,0.0622,0.0616,0.0574,0.0543,0.0507,0.0439,0.0433,0.0427,0.0493,0.0492,0.0492,0.0491,0.0491,0.0356,0.0376,0.0455,0.0517,0.0638,0.0682,0.0706,0.0682,0.0677,0.0646,0.0563,0.0558,0.0542,0.0534,0.053,0.063,0.063,0.063,0,0.0365,0.0382,0.0485,0.0579,0.0677,0.0726,0.0744,0.0732,0.0667,0.066,0.0656,0.0564,0.056,0.054,0.0533,0.0528,0,0,0,0.0381,0.0412,0.0482,0.058,0.0693,0.0732,0.0749,0.0729,0.0691,0.0672,0.0637,0.0636,0.0556,0.0507,0.047,0.0463,0.0451,0,0]}]]